Location: Newark
(51.5306°N, 0.2243°W)
Time: 14:05:54
(UTC+00:00)

Envisat - Pass Details

Date: 01 October 2019
Orbit: 764 x 766 km, 98.1° (Epoch: 20 October)

Event Time Altitude Azimuth Distance (km) Brightness Sun altitude
Rises 19:16:29 0° 206° (SSW) 3,223 6.4 -15.8°
Reaches altitude 10° 19:19:21 10° 223° (SW) 2,302 5.8 -16.2°
Maximum altitude 19:23:06 21° 271° (W) 1,693 5.7 -16.8°
Drops below altitude 10° 19:26:53 10° 319° (NW) 2,314 6.4 -17.4°
Sets 19:29:47 0° 335° (NNW) 3,246 6.9 -17.8°
